Simultaneous Nadir Overpasses (SNOs) Predictions

Prediction of SNOs between AQUA and NOAA-19 Satellite Orbit:

Table of predicted SNOs for the next 14.0 days since TLE Epoch: 12/16/2016
Index Date (AQUA) Time (AQUA) Lat,Lon (AQUA) SZA (AQUA ) Date (NOAA-19) Time (NOAA-19) Lat,Lon (NOAA-19) SZA (NOAA-19 ) Distance(km) Time Diff (sec)
1 12/17/2016 06:23:13 80.94, 43.72 106.23 12/17/2016 06:23:20 80.94, 43.76 106.23 0.85 7
2 12/19/2016 11:56:58 -80.94, 140.31 73.70 12/19/2016 11:57:19 -80.95, 140.17 73.69 2.62 21
3 12/21/2016 16:41:17 -80.95, 69.00 73.62 12/21/2016 16:40:16 -80.95, 68.84 73.58 2.76 61
4 12/21/2016 17:30:43 80.94,-123.22 106.36 12/21/2016 17:31:12 80.95,-123.35 106.36 2.23 29
5 12/23/2016 22:15:02 80.96, 165.43 106.41 12/23/2016 22:14:08 80.95, 165.48 106.42 1.42 54
6 12/23/2016 23:04:28 -80.95, -26.68 73.64 12/23/2016 23:05:11 -80.95, -26.61 73.66 1.15 43
7 12/26/2016 03:48:46 -80.94, -97.70 73.68 12/26/2016 03:48:07 -80.95, -97.65 73.66 1.21 39
8 12/26/2016 04:38:13 80.96, 69.72 106.36 12/26/2016 04:39:03 80.95, 69.82 106.32 2.14 50
9 12/28/2016 09:22:31 80.96, -1.34 106.28 12/28/2016 09:21:59 80.95, -1.41 106.30 1.31 32




NCC Satellite Simultaneous Nadir Overpasses (SNOs) Prediction Service
